sat.trackr.live / text

‹ back to catalog

STARLINK-2082

NORAD 47367 · 2021-005U

PAYLOAD ACTIVE UNKNOWN

§ Identity

Operator
Country
US
Launch date
2021-01-20
Launch site
AFETR
Launch vehicle
Mass (kg)
RCS (m²)

Purposes: comms

External: N2YO · Heavens-Above · Gunter

§ Orbital elements

Epoch: 2026-09-09T15:15:24.660576Z

Period
94.01 min
Inclination
53.1593°
Eccentricity
0.0001278
Mean motion
15.31696995 rev/d
Perigee alt
469.9 km
Apogee alt
471.6 km
Semi-major
6,848.9 km
B*
-1.6683e-5
RAAN
286.6362°
Arg perigee
75.3385°
Mean anomaly
284.7758°
Rev number
31,121

§ Raw data

STARLINK-20821 47367U 21005U   26252.63570209 -.00000883  00000+0 -16683-4 0  99922 47367  53.1593 286.6362 0001278  75.3385 284.7758 15.31696995311210

JSON: /api/v1/satellites/47367 · /tle

For live sub-satellite position, see the globe view (requires WebGL).

§ Visibility from observer

Set your observer location to see the next 7 days of passes ≥ 10°. The values pass through the URL so the page stays shareable.

No JS? Fill the form by hand. The geolocation button needs JavaScript.